| time (UTC) | temp C | wind direction | speed KPH | gust KPH | rain 1hr cm | rain 24hr cm | rain mn cm | humidity % | barometer mb |
| 20260505040058 | 23 | 29 | 0.0 | 0.0 | 0.00 | 0.00 | 0.00 | 79 | 1012.6 |
| 20260505034558 | 23 | 29 | 0.0 | 1.6 | 0.00 | 0.00 | 0.00 | 79 | 1012.5 |
| 20260505033058 | 23 | 29 | 0.0 | 3.2 | 0.00 | 0.00 | 0.00 | 79 | 1012.4 |
| 20260505031606 | 23 | 100 | 0.0 | 0.0 | 0.00 | 0.00 | 0.00 | 79 | 1012.3 |
| 20260505030059 | 23 | 126 | 0.0 | 3.2 | 0.00 | 0.00 | 0.00 | 79 | 1012.2 |
| 20260505024604 | 23 | 109 | 0.0 | 3.2 | 0.00 | 0.00 | 0.00 | 79 | 1012.2 |
| 20260505023056 | 23 | 103 | 0.0 | 4.8 | 0.00 | 0.00 | 0.00 | 78 | 1012.0 |
| 20260505021559 | 23 | 121 | 1.6 | 4.8 | 0.00 | 0.00 | 0.00 | 78 | 1011.8 |
| 20260505020054 | 24 | 119 | 1.6 | 4.8 | 0.00 | 0.00 | 0.00 | 78 | 1011.9 |
| 20260505014607 | 24 | 141 | 3.2 | 6.4 | 0.00 | 0.00 | 0.00 | 78 | 1011.6 |
| 20260505013054 | 24 | 146 | 3.2 | 6.4 | 0.00 | 0.00 | 0.00 | 77 | 1011.5 |
| 20260505011605 | 24 | 156 | 1.6 | 6.4 | 0.00 | 0.00 | 0.00 | 77 | 1011.5 |
| 20260505010054 | 25 | 142 | 4.8 | 6.4 | 0.00 | 0.00 | 0.00 | 77 | 1011.4 |
| 20260505004553 | 25 | 138 | 3.2 | 8.0 | 0.00 | 0.00 | 0.00 | 76 | 1011.4 |
| 20260505003053 | 25 | 134 | 6.4 | 11.3 | 0.00 | 0.00 | 0.00 | 75 | 1011.4 |
| 20260505001551 | 25 | 121 | 4.8 | 11.3 | 0.00 | 0.00 | 0.00 | 75 | 1011.5 |
| 20260505000105 | 25 | 128 | 6.4 | 14.5 | 0.00 | 0.00 | 0.00 | 74 | 1011.7 |
| 20260504234550 | 25 | 127 | 8.0 | 14.5 | 0.00 | 0.00 | 0.00 | 74 | 1011.8 |
| 20260504233105 | 25 | 107 | 9.7 | 14.5 | 0.00 | 0.00 | 0.00 | 74 | 1011.8 |
| 20260504231548 | 25 | 115 | 9.7 | 16.1 | 0.00 | 0.00 | 0.00 | 73 | 1011.9 |
| 20260504230045 | 26 | 133 | 8.0 | 14.5 | 0.00 | 0.00 | 0.00 | 73 | 1012.0 |
| 20260504224544 | 26 | 124 | 11.3 | 14.5 | 0.00 | 0.00 | 0.00 | 72 | 1012.0 |
| 20260504223059 | 26 | 126 | 9.7 | 16.1 | 0.00 | 0.00 | 0.00 | 73 | 1012.2 |
| 20260504221544 | 26 | 121 | 11.3 | 17.7 | 0.00 | 0.00 | 0.00 | 71 | 1012.3 |
| 20260504220043 | 26 | 109 | 11.3 | 17.7 | 0.00 | 0.00 | 0.00 | 70 | 1012.4 |
| 20260504214543 | 26 | 116 | 12.9 | 17.7 | 0.00 | 0.00 | 0.00 | 72 | 1012.6 |
| 20260504213053 | 26 | 114 | 12.9 | 17.7 | 0.00 | 0.00 | 0.00 | 71 | 1012.6 |
| 20260504211541 | 26 | 115 | 12.9 | 20.9 | 0.00 | 0.00 | 0.00 | 73 | 1012.9 |
| 20260504210042 | 26 | 117 | 14.5 | 20.9 | 0.00 | 0.00 | 0.00 | 71 | 1013.2 |
| 20260504204546 | 26 | 136 | 16.1 | 22.5 | 0.00 | 0.00 | 0.00 | 71 | 1013.5 |
| 20260504203053 | 26 | 123 | 19.3 | 24.1 | 0.00 | 0.00 | 0.00 | 71 | 1013.5 |
| 20260504201539 | 26 | 101 | 19.3 | 25.7 | 0.00 | 0.00 | 0.00 | 70 | 1013.6 |
| 20260504200039 | 26 | 120 | 14.5 | 25.7 | 0.00 | 0.00 | 0.00 | 70 | 1013.7 |
| 20260504194539 | 26 | 103 | 17.7 | 25.7 | 0.00 | 0.00 | 0.00 | 69 | 1013.7 |
| 20260504193038 | 26 | 103 | 17.7 | 25.7 | 0.00 | 0.00 | 0.00 | 68 | 1013.7 |
| 20260504191537 | 26 | 76 | 17.7 | 29.0 | 0.00 | 0.00 | 0.00 | 68 | 1013.9 |
| 20260504190039 | 27 | 111 | 17.7 | 25.7 | 0.00 | 0.00 | 0.00 | 69 | 1013.9 |
| 20260504184536 | 27 | 115 | 14.5 | 25.7 | 0.00 | 0.00 | 0.00 | 70 | 1014.0 |
| 20260504183036 | 27 | 125 | 16.1 | 22.5 | 0.00 | 0.00 | 0.00 | 69 | 1014.2 |
| 20260504181542 | 27 | 98 | 16.1 | 22.5 | 0.00 | 0.00 | 0.00 | 68 | 1014.3 |
| 20260504180034 | 27 | 120 | 14.5 | 20.9 | 0.00 | 0.00 | 0.00 | 69 | 1014.3 |
| 20260504174533 | 26 | 94 | 14.5 | 22.5 | 0.00 | 0.00 | 0.00 | 71 | 1014.4 |
| 20260504173032 | 27 | 105 | 12.9 | 22.5 | 0.00 | 0.00 | 0.00 | 69 | 1014.5 |
| 20260504171530 | 27 | 96 | 12.9 | 17.7 | 0.00 | 0.00 | 0.00 | 70 | 1014.7 |
| 20260504081515 | 21 | 304 | 9.7 | 12.9 | 0.00 | 0.00 | 0.00 | 41 | 1012.9 |
| 20260504044546 | 21 | 293 | 4.8 | 6.4 | 0.00 | 0.00 | 0.00 | 64 | 1013.5 |
| 20260504043038 | 22 | 284 | 4.8 | 6.4 | 0.00 | 0.00 | 0.00 | 68 | 1013.3 |
| 20260504041535 | 23 | 338 | 1.6 | 4.8 | 0.00 | 0.00 | 0.00 | 68 | 1013.1 |